SBGO 240200Z 33003KT CAVOK 21/13 Q1019
 CSS3 Dropdown Menu
 
  Simulador de Vôo    
Equipamento

O treinamento do simulador é 30hrs e abate 20hrs da instrução IFR.

GA-18

Monomotor, simula a operação do C182
R$ 110,00 / hora

GA-30

Bimotor, simula a aeronave Seneca III
R$ 130,00 / hora

 

 

 
Copyrigth